Probability
0 0 0 0 0 0 0 0 0 0 0 0 0 0 0 0 0 0 0 0 0 0 0 0 0 0 0 0 0 0 0 0 0 0 0 0 0 0 0 0 0 0 0 0
0 0 0 0 0 0 0 0 0 0 0 0 0 0 0 0 0 0 0 0 0 0 0 0 0 0 0 0 0 0 0 0 0 0 0 0 0 0 0 0 0 0 0 0
0 0 0 0 0 0 0 0 0 0 0 0 0 0 0 0 0 0 0 0 0 0 0 0 0 0 0 0 0 0 0 0 0 0 0 0 0 0 0 0 0 0 0 0
0 0 0 0 0 0 0 0 0 0 0 0 0 0 0 0 0 0 0 0 0 0 0 0 0 0 0 0 0 0 0 0 0 0 0 0 0 0 0 0 0 0 0 0
0 0 0 0 0 0 0 0 0 0 0 0 0 0 0 0 0 0 0 0 0 0 0 0 0 0 0 0 0 0 0 0 0 0 0 0 0 0 0 0 0 0 0 0
0 0 0 0 0 0 0 0 0 0 0 0 0 0 0 0 0 0 0 0 0 0 0 0 0 0 0 0 0 0 0 0 0 0 0 0 0 0 0 0 0 0 0 0
0 0 0 0 0 0 0 0 0 0 0 0 0 0 0 0 0 0 0 0 0 0 0 0 0 0 0 0 0 0 0 0 0 0 0 0 0 0 0 0 0 0 0 0
0 0 0 0 0 0 0 0 0 0 0 0 0 0 0 0 0 0 0 0 0 0 0 0 0 0 0 0 0 0 0 0 0 0 0 0 0 0 0 0 0 0 0 0
0 0 0 0 0 0 0 0 0 0 0 0 0 0 0 0 0 0 0 0 0 0 0 0 0 0 0 0 0 0 0 0 0 0 0 0 0 0 0 0 0 0 0 0
0 0 0 0 0 0 0 0 0 0 0 0 0 0 0 0 0 0 0 0 0 0 0 0 0 0 0 0 0 0 0 0 0 0 0 0 0 0 0 0 0 0 0 0
0 0 0 0 0 0 0 0 0 0 0 0 0 0 0 0 0 0 0 0 0 0 0 0 0 0 0 0 0 0 0 0 0 0 0 0 0 0 0 0 0 0 0 0
0 0 0 0 0 0 0 0 0 0 0 0 0 0 0 0 0 0 0 0 0 0 0 0 0 0 0 0 0 0 0 0 0 0 0 0 0 0 0 0 0 0 0 0
0 0 0 0 0 0 0 0 0 0 0 0 0 0 0 0 0 0 0 0 0 0 0 0 0 0 0 0 0 0 0 0 0 0 0 0 0 0 0 0 0 0 0 0
0 0 0 0 0 0 0 0 0 0 0 0 0 0 0 0 0 0 0 0 0 0 0 0 0 0 0 0 0 0 0 0 0 0 0 0 0 0 0 0 0 0 0 0
0 0 0 0 0 0 0 0 0 0 0 0 0 0 0 0 0 0 0 0 0 0 0 0 0 0 0 0 0 0 0 0 0 0 0 0 0 0 0 0 0 0 0 0
0 0 0 0 0 0 0 0 0 0 0 0 0 0 0 0 0 0 0 0 0 0 0 0 0 0 0 0 0 0 0 0 0 0 0 0 0 0 0 0 0 0 0 0
0 0 0 0 0 0 0 0 0 0 0 0 0 0 0 0 0 0 0 0 0 0 0 0 0 0 0 0 0 0 0 0 0 0 0 0 0 0 0 0 0 0 0 0
0 0 0 0 0 0 0 0 0 0 0 0 0 0 0 0 0 0 0 0 0 0 0 0 0 0 0 0 0 0 0 0 0 0 0 0 0 0 0 0 0 0 0 0
0 0 0 0 0 0 0 0 0 0 0 0 0 0 0 0 0 0 0 0 0 0 0 0 0 0 0 0 0 0 0 0 0 0 0 0 0 0 0 0 0 0 0 0
0 0 0 0 0 0 0 0 0 0 0 0 0 0 0 0 0 0 0 0 0 0 0 0 0 0 0 0 0 0 0 0 0 0 0 0 0 0 0 0 0 0 0 0
0 0 0 0 0 0 0 0 0 0 0 0 0 0 0 0 0 0 0 0 0 0 0 0 0 0 0 0 0 0 0 0 0 0 0 0 0 0 0 0 0 0 0 0
0 0 0 0 0 0 0 0 0 0 0 0 0 0 0 0 0 0 0 0 0 0 0 0 0 0 0 0 0 0 0 0 0 0 0 0 0 0 0 0 0 0 0 0
0 0 0 0 0 0 0 0 0 0 0 0 0 0 0 0 0 0 0 0 0 0 0 0 0 0 0 0 0 0 0 0 0 0 0 0 0 0 0 0 0 0 0 0
0 0 0 0 0 0 0 0 0 0 0 0 0 0 0 0 0 0 0 0 0 0 0 0 0 0 0 0 0 0 0 0 0 0 0 0 0 0 0 0 0 0 0 0
0 0 0 0 0 0 0 0 0 0 0 0 0 0 0 0 0 0 0 0 0 0 0 0 0 0 0 0 0 0 0 0 0 0 0 0 0 0 0 0 0 0 0 0
0 0 0 0 0 0 0 0 0 0 0 0 0 0 0 0 0 0 0 0 0 0 0 0 0 0 0 0 0 0 0 0 0 0 0 0 0 0 0 0 0 0 0 0
0 0 0 0 0 0 0 0 0 0 0 0 0 0 0 0 0 0 0 0 0 0 0 0 0 0 0 0 0 0 0 0 0 0 0 0 0 0 0 0 0 0 0 0
Height
5771 5769 5764 5761 5760 5756 5750 5746 5740 5737 5732 5728 5721 5716 5711 5706 5702 5697 5692 5687 5681 5676 5671 5666 5660 5655 5649 5643 5637 5630 5624 5618 5612 5605 5599 5592 5586 5579 5572 5565 5558 5550 5544 5537
5762 5759 5754 5752 5751 5746 5741 5736 5731 5726 5722 5717 5710 5705 5700 5695 5689 5684 5679 5673 5668 5662 5657 5651 5646 5640 5635 5629 5622 5616 5610 5604 5597 5591 5584 5577 5570 5563 5556 5550 5543 5536 5529 5522
5751 5749 5745 5744 5742 5736 5731 5727 5722 5717 5712 5705 5700 5695 5689 5683 5678 5672 5666 5661 5655 5650 5644 5638 5632 5626 5621 5615 5608 5602 5596 5589 5582 5576 5569 5562 5555 5548 5541 5535 5528 5521 5514 5507
5740 5738 5735 5737 5730 5725 5721 5717 5712 5707 5702 5696 5690 5685 5678 5672 5666 5660 5654 5649 5643 5637 5631 5625 5619 5613 5607 5600 5594 5587 5581 5574 5568 5561 5554 5548 5541 5534 5527 5520 5513 5506 5500 5493
5731 5727 5725 5726 5721 5714 5710 5707 5701 5696 5691 5686 5680 5674 5668 5661 5655 5648 5643 5636 5630 5624 5618 5612 5606 5600 5593 5587 5580 5573 5567 5560 5553 5547 5540 5534 5527 5520 5513 5506 5499 5492 5485 5478
5723 5717 5715 5716 5709 5702 5699 5695 5690 5685 5679 5674 5668 5663 5659 5650 5644 5637 5631 5624 5618 5611 5605 5599 5592 5586 5579 5573 5566 5559 5553 5546 5539 5533 5526 5519 5513 5506 5499 5492 5485 5478 5471 5464
5713 5707 5706 5703 5697 5692 5688 5684 5678 5672 5667 5662 5656 5650 5645 5638 5632 5625 5619 5612 5605 5599 5592 5585 5579 5572 5566 5559 5552 5546 5539 5532 5525 5518 5511 5505 5498 5491 5484 5477 5470 5464 5457 5450
5703 5699 5698 5690 5685 5680 5676 5670 5665 5660 5655 5649 5644 5638 5631 5625 5619 5612 5606 5599 5592 5586 5579 5571 5564 5558 5553 5546 5539 5532 5525 5518 5510 5503 5497 5490 5483 5476 5469 5461 5455 5448 5441 5434
5693 5691 5685 5677 5671 5666 5661 5657 5652 5647 5642 5635 5630 5624 5618 5612 5605 5599 5592 5585 5579 5572 5566 5558 5551 5544 5538 5532 5525 5518 5511 5503 5496 5489 5481 5474 5467 5460 5452 5445 5438 5432 5425 5418
5680 5677 5671 5664 5658 5653 5648 5643 5638 5632 5627 5621 5615 5609 5603 5597 5591 5584 5578 5571 5565 5558 5552 5545 5537 5529 5523 5517 5510 5504 5496 5489 5481 5474 5466 5458 5450 5443 5436 5429 5422 5415 5408 5402
5665 5662 5656 5651 5645 5640 5634 5629 5623 5617 5611 5605 5600 5594 5588 5582 5576 5569 5563 5556 5550 5544 5537 5531 5523 5516 5508 5502 5495 5489 5481 5473 5465 5458 5450 5442 5435 5426 5419 5412 5404 5398 5392 5386
5648 5645 5639 5636 5629 5623 5618 5613 5607 5601 5596 5589 5583 5578 5572 5566 5559 5553 5548 5542 5536 5529 5522 5515 5508 5501 5494 5487 5480 5473 5466 5458 5450 5442 5434 5426 5418 5411 5402 5395 5388 5381 5375 5370
5631 5628 5622 5618 5613 5606 5601 5595 5590 5584 5578 5572 5566 5560 5555 5550 5544 5538 5532 5526 5520 5514 5507 5500 5493 5486 5479 5472 5464 5457 5449 5442 5434 5426 5417 5409 5401 5393 5386 5379 5372 5365 5359 5353
5613 5609 5606 5600 5595 5589 5583 5578 5572 5566 5560 5554 5549 5544 5538 5533 5528 5522 5516 5510 5504 5498 5491 5484 5478 5471 5464 5457 5449 5442 5434 5426 5418 5410 5401 5392 5384 5376 5368 5361 5355 5349 5343 5338
5594 5589 5585 5581 5576 5570 5565 5559 5554 5549 5543 5538 5532 5527 5522 5517 5512 5506 5500 5494 5489 5483 5476 5470 5464 5457 5449 5442 5435 5427 5419 5411 5403 5394 5385 5376 5367 5359 5352 5345 5339 5333 5328 5323
5576 5570 5566 5562 5557 5552 5547 5542 5537 5533 5527 5522 5517 5512 5507 5502 5497 5491 5485 5479 5474 5468 5461 5455 5449 5442 5435 5428 5421 5414 5405 5397 5388 5379 5370 5361 5352 5345 5338 5331 5325 5319 5315 5310
5558 5553 5549 5545 5540 5535 5531 5526 5521 5517 5512 5507 5503 5498 5493 5488 5483 5477 5472 5466 5459 5453 5447 5441 5436 5429 5422 5415 5407 5400 5392 5384 5374 5365 5356 5348 5340 5332 5325 5318 5313 5308 5304 5300
5540 5537 5532 5528 5524 5520 5515 5511 5506 5501 5497 5492 5488 5484 5478 5473 5468 5463 5458 5452 5446 5441 5434 5428 5422 5416 5409 5402 5395 5387 5379 5371 5362 5353 5345 5336 5328 5321 5314 5308 5303 5298 5294 5292
5525 5522 5518 5513 5509 5505 5500 5496 5492 5488 5483 5479 5474 5470 5465 5459 5454 5449 5444 5439 5433 5428 5423 5416 5410 5404 5397 5390 5383 5375 5367 5358 5350 5342 5334 5326 5318 5312 5305 5299 5294 5290 5287 5285
5511 5507 5503 5499 5495 5491 5487 5483 5478 5474 5470 5465 5461 5456 5452 5447 5441 5436 5431 5426 5420 5415 5410 5405 5399 5393 5386 5379 5372 5364 5356 5348 5339 5332 5324 5316 5309 5303 5297 5293 5288 5285 5282 5279
5498 5494 5490 5486 5482 5478 5474 5469 5465 5461 5457 5452 5447 5443 5439 5434 5429 5424 5419 5415 5410 5404 5399 5393 5387 5381 5375 5368 5361 5354 5346 5338 5330 5322 5315 5308 5301 5296 5291 5287 5283 5280 5277 5275
5485 5481 5477 5474 5470 5466 5462 5457 5452 5448 5444 5440 5435 5430 5426 5422 5417 5413 5408 5403 5399 5393 5388 5383 5377 5371 5365 5358 5351 5344 5336 5329 5321 5314 5307 5301 5295 5289 5285 5281 5278 5275 5272 5270
5472 5468 5465 5461 5457 5453 5450 5445 5440 5436 5432 5427 5423 5418 5414 5410 5406 5401 5398 5393 5388 5383 5378 5372 5367 5361 5355 5348 5342 5335 5327 5320 5314 5307 5301 5294 5289 5284 5279 5276 5273 5271 5269 5267
5459 5456 5452 5448 5444 5441 5437 5433 5429 5424 5420 5416 5411 5406 5402 5399 5395 5390 5386 5382 5378 5373 5368 5363 5357 5351 5345 5339 5332 5325 5319 5312 5307 5301 5295 5289 5284 5279 5276 5272 5270 5267 5265 5264
5447 5444 5440 5436 5432 5429 5425 5421 5418 5413 5409 5405 5401 5396 5392 5388 5384 5381 5377 5373 5368 5364 5359 5354 5348 5343 5337 5331 5324 5317 5311 5306 5300 5295 5290 5285 5281 5277 5273 5270 5267 5265 5263 5261
5435 5431 5428 5424 5420 5416 5413 5409 5405 5402 5397 5394 5391 5386 5382 5378 5374 5370 5367 5363 5359 5355 5350 5346 5340 5335 5329 5324 5317 5311 5305 5300 5295 5291 5286 5282 5278 5274 5271 5268 5266 5264 5262 5260
5423 5420 5416 5413 5409 5405 5401 5397 5394 5390 5386 5383 5380 5376 5373 5369 5365 5361 5358 5354 5351 5347 5342 5338 5333 5328 5323 5317 5312 5306 5301 5296 5292 5287 5283 5279 5276 5273 5270 5267 5265 5263 5261 5259
Wind_Speed
37 37 39 40 39 38 41 42 46 45 46 46 48 49 50 50 50 50 51 51 51 51 50 50 49 49 49 50 50 50 51 51 52 53 54 55 56 57 57 57 57 57 56 56
37 36 38 39 36 37 40 41 43 44 44 45 48 48 49 49 50 50 50 50 49 49 49 49 49 48 48 49 50 51 51 52 53 54 55 55 56 56 56 55 55 55 55 55
38 37 38 36 35 37 38 39 41 42 44 45 46 46 46 47 48 48 47 47 46 47 47 47 48 48 48 49 50 51 52 53 53 53 54 54 54 53 53 53 54 53 53 52
39 39 39 36 35 37 38 39 40 41 42 43 44 44 45 46 46 46 45 46 46 47 47 48 49 49 49 50 50 51 51 51 51 52 52 52 52 52 52 52 52 52 51 52
39 40 39 35 37 39 41 41 42 43 43 44 44 44 45 46 46 46 46 47 48 48 49 48 49 49 49 50 50 51 50 50 51 51 51 51 51 51 51 51 51 51 51 51
37 40 41 40 42 44 45 46 45 46 46 46 46 47 46 47 47 47 48 49 49 49 49 49 49 49 50 50 51 50 50 50 50 51 51 51 51 51 51 51 51 52 51 51
40 43 43 44 46 47 48 49 49 49 49 50 50 51 50 51 51 50 50 50 50 50 51 50 50 50 50 51 50 50 50 51 51 51 51 51 51 52 52 53 53 53 53 53
43 45 45 47 49 50 52 52 53 53 53 53 54 54 54 54 54 53 53 53 53 53 52 52 51 51 52 52 52 51 51 51 51 52 52 53 54 55 55 55 55 54 54 54
47 48 48 50 53 54 56 56 56 56 57 57 58 57 57 57 57 56 56 56 55 54 53 53 53 53 54 53 53 52 51 52 52 53 54 55 56 57 56 56 56 55 55 54
51 50 51 54 56 57 58 59 59 60 61 61 61 61 61 60 59 58 58 57 56 55 54 54 54 55 55 55 54 54 53 54 55 56 56 57 57 58 58 58 57 56 55 54
55 55 57 58 59 60 61 62 63 63 64 64 64 63 63 62 61 60 58 57 56 56 55 55 55 56 56 56 55 55 56 56 57 57 58 58 58 59 59 58 58 56 55 54
60 60 63 63 64 65 66 66 66 66 66 66 65 65 64 62 61 60 58 57 56 56 56 56 56 56 56 56 56 57 57 57 57 57 58 58 59 59 59 58 57 55 54 53
63 64 66 66 67 68 69 69 69 68 68 67 66 65 63 62 60 59 58 57 56 56 57 57 56 56 57 57 57 57 57 57 57 58 58 59 59 59 58 57 55 54 52 51
67 68 68 68 69 69 69 69 69 68 67 65 64 63 61 59 58 57 57 57 56 56 56 56 55 56 56 57 57 57 57 57 58 58 59 59 59 58 57 55 52 50 49 47
70 70 70 70 69 69 68 67 66 64 63 62 61 60 59 58 56 56 56 56 55 55 55 55 55 55 56 56 56 56 56 56 57 58 58 57 56 55 53 51 49 47 45 43
69 69 68 67 65 64 63 62 61 59 58 58 57 56 56 55 55 54 55 55 55 54 54 54 54 54 54 54 54 54 54 55 56 56 55 54 52 50 48 47 45 43 41 38
65 63 62 61 60 58 58 57 56 55 55 54 54 54 53 53 53 53 53 53 53 52 53 52 52 52 52 52 52 52 52 53 53 53 52 51 49 46 45 43 40 39 35 32
59 57 56 55 54 53 52 51 52 52 52 52 52 52 52 52 52 51 50 50 50 50 51 51 51 50 50 50 50 51 51 51 51 50 49 47 45 43 41 39 37 34 30 28
53 52 51 50 50 49 49 49 50 50 50 50 50 50 50 50 51 50 49 49 49 49 48 49 49 48 48 48 49 49 49 49 48 47 46 44 42 40 39 35 32 29 26 25
48 47 47 47 47 47 48 48 48 49 49 49 49 48 48 49 49 48 47 47 48 47 46 46 45 45 46 46 47 47 47 47 46 44 43 42 39 37 34 30 27 26 24 22
44 44 45 45 45 46 47 48 48 48 48 48 48 47 47 46 46 46 45 44 44 44 44 44 44 44 44 44 45 45 46 44 43 42 40 38 35 32 29 27 25 24 21 19
43 44 44 45 46 46 47 47 48 48 47 47 47 46 46 45 44 43 43 43 42 42 42 42 42 42 42 43 43 43 43 41 40 39 37 35 32 30 27 25 24 21 18 17
44 44 45 46 46 45 45 46 47 47 46 46 45 44 44 43 42 41 40 40 41 40 40 41 41 40 41 41 41 41 40 39 38 36 34 32 29 26 23 21 20 17 16 16
44 44 45 45 45 44 44 44 44 44 44 43 43 43 43 41 40 40 40 39 39 39 39 39 39 38 39 40 40 39 37 36 34 32 31 28 25 22 20 19 17 14 14 14
43 43 43 43 43 43 43 43 42 42 42 41 41 41 41 40 38 38 37 37 37 37 36 36 36 36 37 38 38 36 34 32 30 29 26 24 22 20 18 15 13 12 12 11
42 43 42 42 42 42 42 42 41 41 40 39 38 39 39 38 37 36 36 35 35 35 34 34 34 34 35 35 35 33 30 28 26 25 23 21 19 17 15 13 11 10 10 10
42 41 41 40 41 41 41 41 41 40 40 39 37 37 36 36 35 34 34 33 33 32 32 32 33 33 32 32 31 29 26 25 24 22 20 18 16 14 12 10 9 9 9 10
Wind_Direction
297 298 298 299 303 304 301 301 301 304 304 305 302 302 303 303 303 302 302 302 302 302 301 300 300 299 299 299 298 298 298 298 297 297 297 297 297 297 297 298 298 298 298 298
297 297 296 299 304 301 300 301 301 302 303 301 302 303 304 304 304 303 303 303 303 303 302 302 301 300 300 299 299 298 298 297 297 297 298 298 298 298 298 298 298 299 299 298
297 297 297 301 303 301 300 300 301 302 303 303 304 306 306 305 305 305 305 304 304 304 304 303 303 302 301 300 299 299 298 298 297 297 298 298 298 298 298 299 299 299 299 298
299 300 301 306 305 302 302 303 303 303 304 306 307 308 307 307 307 307 307 307 306 306 305 304 303 302 301 300 299 299 299 298 298 298 298 299 299 299 299 299 299 299 299 299
299 300 302 305 304 303 304 304 304 305 307 308 308 309 309 310 309 309 308 307 306 305 304 304 302 302 301 300 300 300 300 299 299 299 299 299 300 300 300 300 300 300 300 300
299 299 303 307 304 304 304 303 305 306 307 308 308 308 309 309 308 307 307 306 305 304 304 303 303 302 302 302 301 301 300 299 299 300 300 300 300 300 300 301 300 300 300 300
298 299 302 303 302 302 302 304 305 306 306 306 307 307 307 306 306 306 305 304 304 303 303 303 302 301 301 302 302 301 301 300 300 300 300 300 300 300 300 300 300 299 300 299
297 299 301 300 300 300 300 302 303 303 304 304 304 305 305 305 304 304 303 303 302 302 302 302 301 301 302 302 302 302 301 301 300 300 300 300 300 300 300 300 300 299 299 299
296 297 298 297 297 298 299 300 300 301 301 301 302 302 303 303 303 302 302 301 301 301 302 301 300 301 301 301 301 302 301 301 300 300 301 301 301 301 300 299 299 299 300 299
293 293 292 292 293 295 296 297 297 298 299 299 300 300 301 301 301 301 301 301 301 300 301 301 300 300 301 301 302 302 301 301 301 301 301 301 301 301 300 300 299 299 299 298
290 291 290 291 292 293 293 294 295 296 297 297 298 298 299 300 300 300 300 300 300 300 300 300 300 300 301 302 302 302 302 302 302 302 302 302 302 302 301 300 299 299 298 297
289 290 290 291 292 292 293 293 294 294 295 296 296 297 298 298 298 299 299 299 299 299 299 300 300 301 301 302 302 303 303 303 303 303 303 303 303 302 301 300 299 299 298 298
288 288 289 290 290 291 292 292 293 294 294 295 295 296 297 297 297 297 298 298 298 299 299 300 300 301 301 302 303 303 304 304 304 304 304 304 304 303 302 300 299 298 297 297
287 287 288 289 289 290 291 292 293 293 294 294 295 295 295 296 296 297 297 298 299 300 300 301 301 302 303 303 304 305 305 305 306 306 306 305 305 304 303 302 300 298 297 296
288 288 289 289 290 291 291 292 292 293 293 293 294 294 295 295 296 297 297 298 299 300 301 301 302 303 303 304 305 306 306 307 307 308 308 307 306 305 304 303 302 300 298 296
288 289 290 291 291 291 292 292 292 292 292 293 293 294 295 296 296 297 298 299 300 300 301 301 302 303 305 306 307 307 308 309 309 310 311 310 309 308 306 305 303 301 299 295
289 290 291 291 292 292 292 292 292 292 292 293 293 294 295 296 297 298 299 300 301 301 301 302 304 305 306 307 309 310 311 311 312 312 313 313 312 311 310 308 305 303 300 295
291 292 292 292 292 292 292 291 291 292 292 293 294 295 296 297 298 298 299 300 300 301 302 304 305 306 307 309 310 312 313 313 313 314 314 315 314 313 312 309 307 305 300 296
292 292 291 291 291 291 290 290 291 292 294 294 295 296 297 297 298 299 300 300 300 300 302 304 305 306 308 309 311 313 314 315 315 315 315 315 315 314 313 311 308 304 300 298
291 291 290 290 291 291 291 292 293 294 294 295 296 297 297 298 299 300 300 301 302 302 303 305 306 307 309 311 313 315 315 316 316 316 317 316 315 315 314 312 310 306 301 297
290 290 290 290 291 292 293 294 295 295 296 296 297 297 298 299 300 301 302 302 302 303 305 306 307 309 311 313 315 316 317 318 318 318 318 318 317 316 313 311 310 308 303 298
290 290 290 291 292 293 294 295 296 297 297 297 297 298 299 300 300 302 304 304 304 304 306 307 309 311 313 315 316 318 318 319 320 320 319 319 318 316 313 309 308 306 303 299
291 291 292 293 294 294 296 297 298 298 299 299 299 300 301 301 302 302 303 304 305 306 308 309 310 312 314 316 318 319 318 319 321 321 321 321 321 319 316 312 310 307 303 302
292 293 294 295 296 297 297 299 300 300 300 300 301 302 302 302 303 304 305 306 307 308 310 311 312 314 316 319 320 320 320 321 322 323 324 324 324 322 319 316 312 306 306 306
295 295 296 297 298 299 300 301 301 301 301 301 301 302 303 304 305 305 305 307 308 310 312 313 314 316 319 321 322 322 322 322 323 325 325 325 326 325 323 319 314 311 312 314
297 298 298 299 300 301 301 302 302 302 301 301 301 301 302 304 305 306 307 308 310 311 313 315 316 318 320 323 325 324 323 324 325 326 327 329 329 328 327 325 324 324 324 327
297 298 299 299 300 300 302 303 303 303 303 302 301 301 303 304 305 306 307 308 309 311 314 316 318 320 321 323 325 326 325 326 327 328 330 332 333 333 334 336 337 337 337 338